#timestamp,LO_Frequency,Hit,StdDev 
1515063615.2,286047003.4,N
1515063635.0,286047000.3,N
1515063635.9,286047000.3,N
1515063655.8,286046998.2,N
1515063675.6,286047001.7,N
1515063695.4,286047002.6,N
1515063715.3,286047002.6,N
1515063735.1,286046998.1,N
1515063736.0,286046998.1,N
1515063755.8,286047002.6,N
1515063775.7,286047003.2,N
1515063795.5,286047007.4,Y
1515063815.3,286047002.6,P
1515063835.2,286047002.8,P
1515063855.9,286046998.5,N
1515063875.7,286046997.1,N
1515063895.6,286046998.7,N
1515063915.4,286046998.1,N
1515063935.2,286046998.6,N
1515063955.0,286046998.4,N
1515063955.9,286046998.4,N
1515063975.8,286046997.0,N
1515063995.6,286046995.8,N
1515064015.4,286046995.6,N
1515064035.3,286046994.0,N
1515064055.1,286046996.8,N
1515064075.8,286046998.8,N
1515064095.7,286047005.9,N
1515064115.5,286047009.1,Y
1515064135.3,286047007.7,P
1515064155.2,286047008.9,N
1515064175.9,286047007.6,N
1515064195.7,286047009.0,N
1515064215.6,286047010.1,N
1515064235.4,286047009.2,N
1515064255.2,286047009.2,N
1515064275.1,286047006.7,N
1515064276.0,286047006.7,N
1515064295.8,286047005.2,N
1515064315.6,286047000.1,N
1515064335.5,286047003.9,N
1515064355.3,286047002.6,N
1515064375.1,286046998.4,N
1515064395.8,286046998.9,N
1515064415.7,286047000.0,N
1515064435.5,286047002.6,N
1515064455.3,286046999.7,N
1515064475.2,286046998.9,N
1515064495.9,286046997.9,N
1515064515.7,286046997.1,N
1515064535.6,286046992.6,N
1515064555.4,286046990.4,N
1515064575.2,286046990.3,N
1515064595.1,286046991.3,N
1515064596.0,286046991.3,N
1515064615.8,286046987.2,N
1515064635.6,286046990.5,N
1515064655.4,286046990.9,N
1515064675.3,286046989.5,N
1515064695.1,286046991.3,N
1515064715.8,286046994.8,N
1515064735.7,286046992.0,N
1515064755.5,286046994.9,N
1515064775.3,286046997.4,N
1515064795.2,286046998.7,N
1515064815.9,286047000.2,N
1515064835.7,286047000.4,N
1515064855.6,286047001.2,N
1515064875.4,286047002.8,N
1515064895.2,286047002.3,N
1515064915.1,286047006.7,N
1515064916.0,286047006.7,N
1515064935.8,286047009.7,N
1515064955.6,286047013.5,N
1515064975.4,286047014.6,N
1515064995.3,286047016.0,N
1515065015.1,286047015.3,N
1515065035.8,286047019.9,N
1515065055.7,286047019.8,N
1515065075.5,286047018.1,N
1515065095.3,286047019.2,N
1515065115.2,286047023.8,N
1515065135.9,286047024.3,N
1515065155.7,286047025.8,N
1515065175.6,286047023.8,N
1515065195.4,286047025.5,N
1515065215.2,286047029.7,N
1515065235.1,286047027.5,N
1515065236.0,286047027.5,N
1515065255.8,286047029.6,N
1515065275.6,286047031.2,N
1515065295.5,286047030.6,N
1515065315.3,286047029.3,N
1515065335.1,286047027.7,N
1515065355.8,286047024.8,N
1515065375.7,286047022.7,N
1515065395.5,286047023.5,N
1515065415.3,286047022.6,N
1515065435.2,286047025.1,Y
1515065455.0,286047004.0,P
1515065455.9,286047004.0,N
1515065475.7,286047002.5,N
1515065495.6,286047002.9,N
1515065515.4,286047003.8,N
1515065535.2,286047004.3,N
1515065555.1,286047003.3,N
1515065556.0,286047003.3,N
1515065575.8,286046998.5,N
1515065595.6,286046997.2,N
1515065615.5,286046998.8,N
1515065635.3,286047000.9,N
1515065655.1,286047002.8,N
1515065675.9,286047000.4,N
1515065695.7,286046998.6,N
1515065715.5,286046996.0,N
1515065735.4,286046993.4,N
1515065755.2,286046997.4,N
1515065775.0,286047000.5,N
1515065775.9,286047000.5,N
1515065795.7,286047000.4,N
1515065815.6,286047002.5,N
1515065835.4,286047002.1,N
1515065855.2,286046998.6,N
1515065875.1,286046997.0,N
1515065876.0,286046997.0,N
1515065895.8,286046995.0,N
1515065915.6,286046999.6,N
1515065935.5,286046999.2,N
1515065955.3,286046996.2,N
1515065975.1,286046993.3,N
1515065995.9,286046997.1,N
1515066015.7,286046995.8,N
1515066035.5,286046993.8,N
1515066055.3,286046991.9,N
1515066075.2,286046994.2,N
1515066095.0,286046994.9,N
1515066095.9,286046994.9,N
1515066115.7,286046998.9,N
1515066135.6,286047001.2,N
1515066155.4,286046997.1,N
1515066175.2,286046997.2,N
1515066195.1,286046995.7,N
1515066196.0,286046995.7,N
1515066215.8,286046995.0,N
1515066235.6,286046995.0,N
1515066255.5,286046995.4,N
1515066275.3,286046997.9,N
1515066295.1,286046995.2,N
1515066315.9,286046993.3,N
1515066335.7,286046995.7,N
1515066355.5,286046992.7,N
1515066375.4,286046992.2,Y
1515066395.2,286046995.4,P
1515066415.0,286046994.3,P
1515066415.9,286046994.3,P
1515066435.8,286046992.9,Y
1515066455.6,286046995.0,P
1515066475.4,286046993.9,P
1515066495.3,286046993.9,P
1515066515.1,286046993.8,Y
1515066535.8,286046996.9,P
1515066555.7,286046995.1,P
1515066575.5,286046995.9,P
1515066595.3,286046995.4,Y
1515066615.2,286046999.8,P
1515066635.9,286047000.0,N
1515066655.7,286046996.6,N
1515066675.6,286047002.4,N
1515066695.4,286046998.5,N
1515066715.2,286046998.3,N
1515066735.1,286047000.2,N
1515066736.0,286047000.2,N
1515066755.8,286046998.9,N
1515066775.6,286046999.7,N
1515066795.4,286047001.3,N
1515066815.3,286047003.0,N
1515066835.1,286047004.9,N
1515066855.8,286047006.2,N
1515066875.7,286047008.4,Y
1515066895.5,286047008.8,P
1515066915.3,286047005.6,N
1515066935.2,286047003.0,N
1515066955.9,286047003.9,N
1515066975.7,286047000.2,N
1515066995.6,286047000.3,N
1515067015.4,286047005.9,N
1515067035.2,286047000.5,N
1515067055.1,286047002.8,N
1515067056.0,286047002.8,N
1515067075.8,286046999.5,N
1515067095.6,286046994.5,N
1515067115.5,286046995.8,N
1515067135.3,286046995.1,N
1515067155.1,286046995.9,N
1515067175.8,286046994.8,N
1515067195.7,286046994.0,N
